COSMOS 2212

Satellite information

Favourite Embed

Satellite Type and Status

PAYLOADIN ORBIT

Key statistics

Satellite COSMOS 2212 at a glance.

Uptime

12061

Days in orbit

Revolutions

≈ 12.6

Per day

Orbit

LEO

Low Earth Orbit

Inclination

82.6

Latest

Satellite identification and parameters

Extended collection of information and parameters for COSMOS 2212.

Object identification

Identified? True

Debris? False

Object name: COSMOS 2212

International designator: 1992-068B

Object number (NORAD): 22183

Object ID (CCSDS): 22183

Country: COMMONWEALTH OF INDEPENDENT STATES (CIS)

Current information (Y/N): Y

RCS size: MEDIUM

Orbital parameters

Period: 114.001 minutes

Inclination: 82.5846 deg

SMA: 7788.139 km

Apoapsis: 1411.783 km

Periapsis: 1408.226 km

RAAN: 117.5859 deg

Eccentricy: 0.00022833

Argument of periapsis: 359.7784 deg

Mean anomaly: 0.3307 deg

Mean motion: 12.63142017 rev/day

Mean motion (dot): 0.00000032 rev/day2

B* drag term: 0.00011838501 1/REarth

Two-line elements (TLE)

Creation date: Oct. 27, 2025, 2:46 a.m.

Reference frame: TEME

Reference center: EARTH

Epoch: Oct. 26, 2025, 10:27 p.m. UTC

TLE line 0: 0 COSMOS 2212

TLE line 1: 1 22183U 92068B 25299.93608605 .00000032 00000-0 11839-3 0 9995

TLE line 2: 2 22183 82.5846 117.5859 0002283 359.7784 0.3307 12.63142017522138

Live tracking on map

Real-time ground track for satellite COSMOS 2212.

In-orbit conjunctions

There are no conjunctions computed for COSMOS 2212, at the moment. Check back to stay up to date, as we update our databases every day.

Go to all conjunctions

Associated space launch

Second generation store-dump military communications satellite

COSMOS 2212 was lifted into orbit during the mission ‘Tsiklon-3 | Strela-3 83 to 88’, on board a Tsiklon-3 space rocket.

The launch took place on Oct. 20, 1992, 12:58 p.m. from 32/1.

For more information about the launch, click the button.

Launch to space Tsiklon-3 | Strela-3 83 to 88
Tsiklon-3 | Strela-3 83 to 88

Agency: N/A

Status: Launch Successful

Launch date: Oct. 20, 1992, 12:58 p.m. UTC

Rocket: Tsiklon-3

Launch pad: 32/1

Location: Plesetsk Cosmodrome, Russian Federation

...

Latest news about this satellite

There are no fresh news available about this satellite. Check back as we update our databases every day.


Newsletter sign-up

Weekly statistics, charts and insights to help you stay on top of the space industry.